Location: Góry Miechowskie
(50.3599°N, 20.1803°E)
Time: 02:27:39
(UTC+00:00)

Vanguard 2 - Pass Details

Date: 20 September 2024
Orbit: 552 x 2910 km, 32.9° (Epoch: 09 October)

Event Time Altitude Azimuth Distance (km) Brightness Sun altitude
Rises 03:50:54 0° 239° (WSW) 3,177 - -5.9°
Exits shadow 03:51:49 - 233° (SW) 2,951 10.0 -5.8°
Reaches altitude 10° 03:54:13 10° 214° (SW) 2,546 9.8 -5.4°
Maximum altitude 03:57:21 14° 182° (S) 2,540 10.1 -4.9°
Drops below altitude 10° 04:01:10 10° 153° (SSE) 3,252 11.0 -4.3°
Sets 04:06:31 0° 132° (SE) 4,786 12.3 -3.5°
